"Pseudo-MPEC" for P110BRz

Created 2020 May 25 14:07:14 UT using Find_Orb

Click here for an explanation of pseudo-MPECs

 
 Astrometry: 
     P110BRz  C2020 05 20-=WEw9)XeSv\)sAstrometry8G1redacted;UYF!wclickn/[.=LF51
     P110BRz  C2020 05 205%im$f`-x`uhereCnTE%cXK?X3weH_]tub=B@^\'\bhW$e%2d^PBF51
     P110BRz  C2020 05 200oUf\forRR^7iYfQPbK4ERKat(f`bR$F(G0Qwg.)LexplanationF51

Station data:
(F51) Pan-STARRS 1, Haleakala  (N20.707235 W156.255910)  US/Hawaii.
   Observers N. Primak, A. Schultz, S. Watters, J. Thiel, T. Goggia. Measurer
   PS1 Science Consortium. 1.8-m Ritchey-Chrétien + CCD.

Orbital elements:  P110BRz
   Perihelion 2020 Jul 15.032267 +/- 36.3 TT =  0:46:27 (JD 2459045.532267)
Epoch 2020 May 20.0 TT = JDT 2458989.5   Earth MOID: 0.0057   AutoNEOCP
M 313.14856539 +/- 19               (J2000 ecliptic)
n   0.83615097 +/- 0.388            Peri.   59.11798 +/- 57
a   1.11586824 +/- 0.345            Node   238.72245 +/- 21
e   0.1252443 +/- 0.255             Incl.    1.81479 +/- 3.5
P   1.18/430.54d           H 29.5   G  0.15   U 12.1  SR
q 0.97611205 +/- 0.201    Q 1.25562442 +/- 39.9
From 3 observations 2020 May 20 (39.6 min); mean residual 0".10
Residuals in arcseconds: 
200520 F51  .06+  .03-    200520 F51  .17-  .10+    200520 F51  .11+  .06-    

Ephemerides (geocentric):
Date (UTC) HH   RA              Dec         delta   r     elong  mag " sig PA
---- -- -- --  -------------   -----------  ------ ------ -----  --- ---- ---
2020 05 25 14  18 22 44.193   -04 05 56.67  .01030 1.0213 143.7 21.1  63d 165
2020 05 25 15  18 24 08.952   -03 51 48.74  .01026 1.0213 143.3 21.1  63d 165
2020 05 25 16  18 25 34.378   -03 37 33.13  .01021 1.0212 142.9 21.1  63d 165
2020 05 25 17  18 27 00.474   -03 23 09.87  .01017 1.0211 142.5 21.1  63d 165
2020 05 25 18  18 28 27.241   -03 08 38.97  .01013 1.0211 142.1 21.1  63d 165
2020 05 25 19  18 29 54.680   -02 54 00.48  .01009 1.0210 141.7 21.1  63d 165
2020 05 25 20  18 31 22.792   -02 39 14.44  .01005 1.0209 141.3 21.1  63d 166
2020 05 25 21  18 32 51.577   -02 24 20.88  .01001 1.0209 140.8 21.1  64d 166
2020 05 25 22  18 34 21.037   -02 09 19.86  .00997 1.0208 140.4 21.1  64d 166
2020 05 25 23  18 35 51.171   -01 54 11.42  .00993 1.0207 140.0 21.1  64d 166
2020 05 26 00  18 37 21.980   -01 38 55.64  .00989 1.0206 139.6 21.1  64d 166
2020 05 26 01  18 38 53.463   -01 23 32.58  .00985 1.0206 139.2 21.1  64d 166
2020 05 26 02  18 40 25.620   -01 08 02.30  .00981 1.0205 138.7 21.1  64d 166
2020 05 26 03  18 41 58.451   -00 52 24.88  .00978 1.0204 138.3 21.1  65d 166
2020 05 26 04  18 43 31.955   -00 36 40.42  .00974 1.0204 137.9 21.1  65d 166
2020 05 26 05  18 45 06.131   -00 20 48.99  .00970 1.0203 137.4 21.1  65d 166
2020 05 26 06  18 46 40.977   -00 04 50.70  .00967 1.0202 137.0 21.1  65d 166
2020 05 26 07  18 48 16.492   +00 11 14.36  .00964 1.0202 136.5 21.1  65d 166
2020 05 26 08  18 49 52.674   +00 27 26.07  .00960 1.0201 136.1 21.1  65d 166
2020 05 26 09  18 51 29.521   +00 43 44.32  .00957 1.0200 135.6 21.1  66d 166
2020 05 26 10  18 53 07.030   +01 00 08.99  .00954 1.0200 135.2 21.1  66d 167
2020 05 26 11  18 54 45.199   +01 16 39.95  .00951 1.0199 134.7 21.1  66d 167
2020 05 26 12  18 56 24.025   +01 33 17.06  .00948 1.0198 134.3 21.1  66d 167
2020 05 26 13  18 58 03.504   +01 50 00.18  .00945 1.0197 133.8 21.2  66d 167
2020 05 26 14  18 59 43.632   +02 06 49.17  .00942 1.0197 133.3 21.2  66d 167
2020 05 26 15  19 01 24.407   +02 23 43.86  .00939 1.0196 132.8 21.2  66d 167
2020 05 26 16  19 03 05.823   +02 40 44.10  .00936 1.0195 132.4 21.2  66d 167
2020 05 26 17  19 04 47.876   +02 57 49.71  .00933 1.0195 131.9 21.2  66d 167
2020 05 26 18  19 06 30.561   +03 15 00.52  .00931 1.0194 131.4 21.2  66d 167
2020 05 26 19  19 08 13.873   +03 32 16.36  .00928 1.0193 130.9 21.2  66d 167
2020 05 26 20  19 09 57.807   +03 49 37.02  .00926 1.0193 130.4 21.2  66d 167
2020 05 26 21  19 11 42.355   +04 07 02.31  .00923 1.0192 129.9 21.2  66d 166
2020 05 26 22  19 13 27.513   +04 24 32.03  .00921 1.0191 129.5 21.2  65d 166
2020 05 26 23  19 15 13.273   +04 42 05.98  .00919 1.0191 129.0 21.2  65d 166
2020 05 27 00  19 16 59.629   +04 59 43.93  .00916 1.0190 128.5 21.2  65d 166
2020 05 27 01  19 18 46.573   +05 17 25.66  .00914 1.0189 128.0 21.2  65d 166
2020 05 27 02  19 20 34.097   +05 35 10.96  .00912 1.0189 127.5 21.3  65d 166
2020 05 27 03  19 22 22.194   +05 52 59.58  .00910 1.0188 127.0 21.3  65d 166
2020 05 27 04  19 24 10.855   +06 10 51.28  .00908 1.0187 126.4 21.3  65d 166
2020 05 27 05  19 26 00.072   +06 28 45.83  .00907 1.0186 125.9 21.3  65d 166
2020 05 27 06  19 27 49.835   +06 46 42.97  .00905 1.0186 125.4 21.3  65d 166
2020 05 27 07  19 29 40.134   +07 04 42.45  .00903 1.0185 124.9 21.3  65d 166
2020 05 27 08  19 31 30.961   +07 22 44.01  .00902 1.0184 124.4 21.3  65d 166
2020 05 27 09  19 33 22.304   +07 40 47.38  .00900 1.0184 123.9 21.3  65d 166
2020 05 27 10  19 35 14.154   +07 58 52.30  .00899 1.0183 123.4 21.3  65d 166
2020 05 27 11  19 37 06.499   +08 16 58.49  .00898 1.0182 122.8 21.3  65d 166
2020 05 27 12  19 38 59.328   +08 35 05.67  .00896 1.0182 122.3 21.4  65d 166
2020 05 27 13  19 40 52.630   +08 53 13.58  .00895 1.0181 121.8 21.4  65d 166